Regional Weather Roundup
Issued by NWS

Home | Current Version | Previous Version | Graphics & Text | Print | Product List | Glossary On
Versions: 1 2 3 4 5 6 7 8 9 10 11 12 13 14 15 16 17 18 19 20 21 22 23 24 25 26 27 28 29 30 31 32 33 34 35 36 37 38 39 40 41 42 43 44 45 46 47 48 49 50
000
ASUS45 KBOU 180410
RWRCO

WEATHER ROUNDUP FOR COLORADO
NATIONAL WEATHER SERVICE DENVER/BOULDER CO
900 PM MST WED JAN 17 2018

NOTE: "FAIR" INDICATES FEW OR NO CLOUDS BELOW 12000 FEET WITH NO
SIGNIFICANT WEATHER AND/OR OBSTRUCTIONS TO VISIBILITY.

COZ001>005-013-030-031-180500-
...NORTHWEST COLORADO...

CITY           SKY/WX    TMP DP  RH WIND       PRES   REMARKS
CRAIG          FAIR      16   8  71 CALM      30.37F
HAYDEN         FAIR     N/A N/A N/A E12       30.38S
MEEKER         FAIR      28  19  69 CALM      30.36S
RABBIT EARS PA FAIR      19  16  86 W9G17     30.35S WCI   9
STEAMBOAT SPGS FAIR      18  10  70 CALM      30.37S
WALDEN         FAIR      16  10  79 SE7       30.34F WCI   6
$$

COZ006>008-011-180500-
...WEST CENTRAL VALLEYS...

CITY           SKY/WX    TMP DP  RH WIND       PRES   REMARKS
GRAND JUNCTION FAIR      27  14  58 E6        30.36S WCI  20
MONTROSE       FAIR      23  13  65 S9        30.38S WCI  13
EAGLE          FAIR      19   8  62 CALM      30.40S
RIFLE          FAIR      27  16  63 CALM      30.37S
DELTA          FAIR      29  12  49 CALM      30.38S
NUCLA          NOT AVBL
$$

COZ017>023-064>068-180500-
...SOUTHWEST COLORADO...

CITY           SKY/WX    TMP DP  RH WIND       PRES   REMARKS
DURANGO        FAIR      24  16  71 E3        30.33R
CORTEZ         FAIR      24  18  77 NE10      30.33S WCI  14
PAGOSA SPRINGS FAIR      24  19  81 CALM      30.33S
TELLURIDE      FAIR      26  11  51 SE6       30.38F WCI  20
WOLF CREEK PAS FAIR      23 -13  20 N3        30.44S
$$

COZ009-010-012-014-032>034-037-058>063-180500-
...CENTRAL COLORADO...

CITY           SKY/WX    TMP DP  RH WIND       PRES   REMARKS
ASPEN          FAIR      23  11  60 S6        30.35S WCI  16
BUENA VISTA    FAIR      24   8  50 W5        30.31F WCI  18
COPPER MTN     NOT AVBL
BERTHOUD PASS  FAIR      14   3  62 NW21G26   30.34F WCI  -4
COTTONWOOD PAS   N/A     34   7  32 W6        30.33F WCI  29
GUNNISON       FAIR      16   7  67 NE3       30.40R
KREMMLING      FAIR      14   7  73 CALM      30.41S
LEADVILLE      FAIR      17   9  70 NE9       30.34F WCI   6
MONARCH PASS   FAIR      19   7  58 W23       30.47F WCI   2
SALIDA         FAIR      32   1  26 W7        30.39S WCI  25
SUNLIGHT       FAIR      25  10  54 CALM      30.42F
WILKERSON PASS FAIR      27   3  36 W6        30.36F WCI  20
$$

COZ069>075-180500-
...SAN LUIS VALLEY/SANGRE DE CRISTO MOUNTAINS...

CITY           SKY/WX    TMP DP  RH WIND       PRES   REMARKS
ALAMOSA        FAIR      14  -3  47 CALM      30.31F
DEL NORTE      FAIR      22  -1  36 W10       30.32S WCI  11
LA VETA PASS   FAIR      28 -13  16 SW6         N/A  WCI  22
SAGUACHE       FAIR      28   5  37 NW16      30.31S WCI  17
$$

COZ035-036-038>040-180500-
...NORTHERN COLORADO FRONT RANGE...

CITY           SKY/WX    TMP DP  RH WIND       PRES   REMARKS
DENVER INTL AP FAIR      25  16  68 S13       30.24F WCI  14
DMNS CITY PARK NOT AVBL
AURORA         CLEAR     29  13  51 S9        30.24F WCI  21
FRONT RANGE AP CLEAR     30  19  64 S8        30.25F WCI  23
ERIE MUNI ARPT FAIR      24  14  67 CALM      30.29F
BOULDER MUN AP FAIR      34  10  37 CALM      30.23F
CENTENNIAL     FAIR      30  12  47 SE8       30.24F WCI  22
BROOMFIELD     CLEAR     39   3  22 CALM      30.24F
FORT COLLINS   FAIR      32  15  49 S6        30.23F WCI  26
LONGMONT       NOT AVBL
$$

COZ041-046-047-076>085-087-088-180500-
...PIKES PEAK/PALMER DIVIDE AND SOUTHERN FOOTHILLS...

CITY           SKY/WX    TMP DP  RH WIND       PRES   REMARKS
COLO. SPRINGS  FAIR      24   5  44 N5        30.28F WCI  18
A. F. ACADEMY  FAIR      19   5  53 N9        30.26F WCI   9
SCHRIEVER AFB  FAIR      26   7  45 CALM      30.28F
CHEYENNE MTN   FAIR      33   3  28 CALM      30.22F
ELLICOTT         N/A    N/A N/A N/A CALM      30.26F
FALCON         FAIR      26   6  42 W8        30.28F WCI  17
FORT CARSON    FAIR      28   5  38 NW6       30.26F WCI  21
LIMON          FAIR      12   7  80 CALM      30.25F
MONUMENT HILL  FAIR      23   9  54 S9        30.27F WCI  13
CANON CITY     FAIR      32   5  32 W9        30.27F WCI  24
WALSENBURG     FAIR      27  10  50 SW10      30.28F WCI  17
TRINIDAD       FAIR      25  10  53 W13       30.29F WCI  14
$$

COZ042>045-048>051-090-091-180500-
...NORTHEAST COLORADO...

CITY           SKY/WX    TMP DP  RH WIND       PRES   REMARKS
GREELEY ARPT   FAIR      22  15  75 CALM      30.24F
AKRON          FAIR      24  14  65 W9        30.23F WCI  14
BURLINGTON     FAIR      21   9  59 W9        30.24F WCI  11
WRAY           FAIR      25  18  74 W8        30.24F WCI  16
YUMA           FAIR      19  10  68 SW7       30.23F WCI  10
STERLING       FAIR      21  16  79 W6        30.23F WCI  14
HOLYOKE        FAIR      23  18  80 W9        30.23S WCI  13
FORT MORGAN    FAIR      31  16  53 W3        30.25F
$$

COZ086-089-092>099-180500-
...SOUTHEAST COLORADO...

CITY           SKY/WX    TMP DP  RH WIND       PRES   REMARKS
PUEBLO         FAIR      25  11  55 CALM      30.27S
LA JUNTA       FAIR      28  12  51 W7        30.26F WCI  21
LAMAR          FAIR      12   1  61 SW6       30.26F WCI   3
SPRINGFIELD      N/A     14   6  70 W5        30.25F WCI   6
$$



USA.gov is the U.S. government's official web portal to all federal, state and local government web resources and services.